Weather in Prohladnyj

Russia / Sverdlovsk Oblast     56°44′50″N   60°56′19″E
temp.,
°C
wind,
m/s
gust,
m/s
humid.,
%
clouds,
%
prec.,
mm/h
press.,
hPa
HPBL,
m
14 august, sun
sun1423:00+12nnw26672 0.0 1017112
02:00+10nw27740 0.0 1019154
05:00+8wnw24830 0.0 102063
08:00+14nw49565 0.0 1020455
11:00+18nw583614 0.0 10202229
14:00+20nnw573120 0.0 10192465
17:00+21nnw48308 0.0 10192632
20:00+17nw394697 0.0 1020496
15 august, mon
mon1523:00+14nw2859100 0.0 1021235
02:00+13nne2363100 0.0 102164
05:00+10nnw11765 0.0 102210
08:00+14wnw12604 0.0 1023209
11:00+19nw24415 0.0 10221943
14:00+21nnw453310 0.0 10212388
17:00+21nnw56326 0.0 10212292
20:00+15nne24541 0.0 102259
16 august, tue
tue1623:00+11wnw226390 0.0 102328
02:00+10wnw23741 0.0 102340
05:00+9w257722 0.0 102480
08:00+13w3106224 0.0 1024367
11:00+20nw58465 0.0 10221293
14:00+23nw693799 0.0 10212788
17:00+22wnw6104123 0.0 10202219
20:00+18nnw410507 0.0 1021446
17 august, wed
wed1723:00+12nnw310696 0.0 1023210
02:00+9nnw2472100 0.0 102470
05:00+8nnw2268100 0.0 102544
08:00+12nw235696 0.0 1025229
11:00+17wnw353893 0.0 10231403
14:00+16nw5544100 0.0 10221031
17:00+13nw3756100 0.0 1022301
20:00+12nw3870100 0.0 1023424
18 august, thu
thu1823:00+11nnw257730 0.0 1023198
02:00+7nnw23954 0.0 102447
05:00+6n23965 0.0 102553
08:00+10nne24710 0.0 1025288
11:00+15nne344344 0.0 10251477
14:00+17n3435100 0.0 10241845
17:00+17nne453495 0.0 10242058
20:00+13nne2552100 0.0 102592